This is the latest recevied weather packets stored in our database for station/object SP1BMW-13. If no packets are shown the sender has not sent any weather packets the latest 10 day(s).
| Time | Temp. | Humidity | Pressure | Rain* | Wind** | Luminosity | Snow |
|---|---|---|---|---|---|---|---|
| 1788107798 | 24.44° C | 52% | 1008.9 hPa | 0 mm | 0.45 m/s, 22° | 48 W/m² | - |
| 1788107738 | 24.44° C | 51% | 1008.8 hPa | 0 mm | 1.79 m/s, 164° | 59 W/m² | - |
| 1788107681 | 24.44° C | 52% | 1008.8 hPa | 0 mm | 0.89 m/s, 293° | 47 W/m² | - |
| 1788107621 | 24.44° C | 52% | 1008.8 hPa | 0 mm | 0.45 m/s, 257° | 69 W/m² | - |
| 1788107558 | 24.44° C | 51% | 1008.8 hPa | 0 mm | 2.68 m/s, 198° | 96 W/m² | - |
| 1788107498 | 24.44° C | 51% | 1009 hPa | 0 mm | 1.34 m/s, 235° | 100 W/m² | - |
| 1788107441 | 24.44° C | 52% | 1008.9 hPa | 0 mm | 0.45 m/s, 31° | 90 W/m² | - |
| 1788107378 | 24.44° C | 51% | 1008.7 hPa | 0 mm | 0.89 m/s, 265° | 49 W/m² | - |
| 1788107318 | 24.44° C | 51% | 1008.6 hPa | 0 mm | 1.34 m/s, 298° | 104 W/m² | - |
| 1788107258 | 24.44° C | 51% | 1008.8 hPa | 0 mm | 0.89 m/s, 198° | 69 W/m² | - |
| 1788107198 | 25° C | 50% | 1008.6 hPa | 0 mm | 0.89 m/s, 153° | 46 W/m² | - |
| 1788107138 | 25° C | 50% | 1008.7 hPa | 0 mm | 0.89 m/s, 274° | 48 W/m² | - |
| 1788107078 | 25° C | 50% | 1008.7 hPa | 0 mm | 1.34 m/s, 266° | 60 W/m² | - |
| 1788107018 | 25° C | 50% | 1008.6 hPa | 0 mm | 0.45 m/s, 43° | 53 W/m² | - |
| 1788106958 | 25° C | 50% | 1008.6 hPa | 0 mm | 1.34 m/s, 295° | 75 W/m² | - |
| 1788106898 | 25° C | 50% | 1008.7 hPa | 0 mm | 2.24 m/s, 257° | 93 W/m² | - |
| 1788106838 | 25° C | 50% | 1008.7 hPa | 0 mm | 2.24 m/s, 265° | 58 W/m² | - |
| 1788106778 | 25.56° C | 50% | 1008.5 hPa | 0 mm | 0.89 m/s, 172° | 63 W/m² | - |
| 1788106718 | 25.56° C | 50% | 1008.7 hPa | 0 mm | 1.79 m/s, 256° | 54 W/m² | - |
| 1788106658 | 25.56° C | 50% | 1008.7 hPa | 0 mm | 0.89 m/s, 312° | 85 W/m² | - |
| 1788106598 | 25.56° C | 49% | 1008.6 hPa | 0 mm | 1.79 m/s, 277° | 123 W/m² | - |
| 1788106541 | 25.56° C | 49% | 1008.6 hPa | 0 mm | 0.45 m/s, 349° | 127 W/m² | - |
| 1788106478 | 25.56° C | 49% | 1008.6 hPa | 0 mm | 0.89 m/s, 249° | 128 W/m² | - |
| 1788106418 | 25.56° C | 49% | 1008.7 hPa | 0 mm | 0.89 m/s, 242° | 132 W/m² | - |
| 1788106358 | 25.56° C | 49% | 1008.5 hPa | 0 mm | 1.34 m/s, 236° | 134 W/m² | - |
* Rain latest hour (hover to see other rain measurements)
** Current wind speed in m/s (hover to see current wind gust speed)